TUI925 EDDS-EDDL

Flight info

Callsign TUI925
Flight time 0h 39m
Altitude 23000
Route TAGIK4B/25 TAGIK Z3 ABUMO N850 GISEM Z505 ARPEG Z850 ADEMI T854 DOMUX DOMUX1A
Aircraft B738/M-SDE2E3FGHIRWXY/LB1

Departure

Time 2026-05-04 20:57
Airport Stuttgart Airport (EDDS)

Arrival

Time 2026-05-04 21:36
Airport Düsseldorf Airport (EDDL)
Time Latitude Longitude Altitude Speed Heading
2026-05-04 20:14 48.68910 9.20022 1293 ft 0 kts 163°
2026-05-04 20:48 48.68894 9.20030 1292 ft 3 kts 163°
2026-05-04 20:48 48.68860 9.20058 1290 ft 7 kts 128°
2026-05-04 20:48 48.68857 9.20159 1286 ft 11 kts 79°
2026-05-04 20:49 48.68882 9.20291 1281 ft 14 kts 71°
2026-05-04 20:49 48.68918 9.20461 1275 ft 18 kts 74°
2026-05-04 20:49 48.68958 9.20667 1267 ft 22 kts 74°
2026-05-04 20:49 48.69004 9.20905 1259 ft 25 kts 73°
2026-05-04 20:50 48.69054 9.21173 1252 ft 27 kts 73°
2026-05-04 20:50 48.69095 9.21388 1248 ft 28 kts 73°
2026-05-04 20:50 48.69149 9.21675 1245 ft 28 kts 73°
2026-05-04 20:50 48.69206 9.21971 1237 ft 30 kts 73°
2026-05-04 20:51 48.69266 9.22289 1229 ft 32 kts 73°
2026-05-04 20:51 48.69330 9.22623 1221 ft 34 kts 75°
2026-05-04 20:51 48.69397 9.22978 1211 ft 36 kts 74°
2026-05-04 20:51 48.69470 9.23358 1202 ft 37 kts 74°
2026-05-04 20:52 48.69526 9.23657 1197 ft 25 kts 72°
2026-05-04 20:52 48.69576 9.23920 1193 ft 26 kts 75°
2026-05-04 20:52 48.69608 9.24092 1190 ft 12 kts 81°
2026-05-04 20:52 48.69585 9.24221 1186 ft 12 kts 117°
2026-05-04 20:53 48.69543 9.24290 1183 ft 0 kts 161°
2026-05-04 20:53 48.69542 9.24290 1183 ft 0 kts 161°
2026-05-04 20:53 48.69542 9.24291 1183 ft 0 kts 161°
2026-05-04 20:54 48.69535 9.24294 1183 ft 2 kts 161°
2026-05-04 20:54 48.69515 9.24304 1182 ft 3 kts 162°
2026-05-04 20:54 48.69483 9.24318 1181 ft 5 kts 167°
2026-05-04 20:54 48.69448 9.24321 1180 ft 5 kts 189°
2026-05-04 20:55 48.69417 9.24304 1180 ft 4 kts 210°
2026-05-04 20:55 48.69402 9.24286 1180 ft 1 kts 225°
2026-05-04 20:55 48.69400 9.24285 1180 ft 0 kts 227°
2026-05-04 20:56 48.69391 9.24269 1181 ft 7 kts 232°
2026-05-04 20:56 48.69356 9.24151 1182 ft 14 kts 253°
2026-05-04 20:56 48.69323 9.23970 1185 ft 23 kts 255°
2026-05-04 20:56 48.69217 9.23411 1196 ft 95 kts 254°
2026-05-04 20:57 48.68961 9.22064 1235 ft 165 kts 254°
2026-05-04 20:57 48.68646 9.20368 2007 ft 168 kts 257°
2026-05-04 20:57 48.68354 9.18756 2868 ft 169 kts 258°
2026-05-04 20:57 48.68035 9.16903 3477 ft 190 kts 257°
2026-05-04 20:58 48.67687 9.15009 4365 ft 195 kts 255°
2026-05-04 20:58 48.67284 9.12962 5054 ft 214 kts 254°
2026-05-04 20:58 48.66860 9.10739 5771 ft 229 kts 256°
2026-05-04 20:58 48.66829 9.08338 6373 ft 239 kts 285°
2026-05-04 20:59 48.67781 9.06133 6653 ft 267 kts 322°
2026-05-04 20:59 48.69495 9.05132 7434 ft 269 kts 356°
2026-05-04 20:59 48.71336 9.05161 8206 ft 272 kts 359°
2026-05-04 20:59 48.73320 9.04782 8389 ft 299 kts 343°
2026-05-04 21:00 48.75288 9.03806 9344 ft 295 kts 337°
2026-05-04 21:00 48.77212 9.02672 9809 ft 310 kts 336°
2026-05-04 21:00 48.79218 9.01499 10633 ft 312 kts 336°
2026-05-04 21:00 48.81298 9.00265 11102 ft 327 kts 336°
2026-05-04 21:01 48.83440 8.98971 11656 ft 338 kts 336°
2026-05-04 21:01 48.85637 8.97650 12311 ft 345 kts 337°
2026-05-04 21:01 48.87871 8.96319 13134 ft 346 kts 337°
2026-05-04 21:01 48.90114 8.94992 13876 ft 349 kts 338°
2026-05-04 21:02 48.92368 8.93668 14581 ft 353 kts 338°
2026-05-04 21:02 48.94716 8.92503 15286 ft 357 kts 344°
2026-05-04 21:02 48.97218 8.91874 15888 ft 364 kts 356°
2026-05-04 21:02 48.99932 8.91933 16565 ft 369 kts
2026-05-04 21:03 49.02584 8.92281 17195 ft 374 kts
2026-05-04 21:03 49.05206 8.92716 17798 ft 379 kts
2026-05-04 21:03 49.08012 8.93187 18451 ft 383 kts
2026-05-04 21:03 49.10882 8.93645 19078 ft 388 kts
2026-05-04 21:04 49.13647 8.94061 19692 ft 391 kts
2026-05-04 21:04 49.16512 8.94474 20300 ft 394 kts
2026-05-04 21:04 49.19443 8.94888 20855 ft 399 kts
2026-05-04 21:04 49.22355 8.95296 21476 ft 401 kts
2026-05-04 21:05 49.25360 8.95717 22011 ft 406 kts
2026-05-04 21:05 49.28455 8.96151 22611 ft 408 kts
2026-05-04 21:05 49.31359 8.96559 22957 ft 414 kts
2026-05-04 21:05 49.34200 8.96964 22967 ft 412 kts
2026-05-04 21:06 49.37038 8.97370 22970 ft 411 kts
2026-05-04 21:06 49.39902 8.97779 22967 ft 409 kts
2026-05-04 21:06 49.42739 8.98184 22968 ft 409 kts
2026-05-04 21:06 49.45543 8.98583 22965 ft 410 kts
2026-05-04 21:07 49.48390 8.98987 22966 ft 409 kts
2026-05-04 21:07 49.51241 8.99391 22963 ft 409 kts
2026-05-04 21:07 49.54063 8.99787 22964 ft 408 kts
2026-05-04 21:07 49.56948 9.00186 22962 ft 408 kts
2026-05-04 21:08 49.59873 9.00588 22963 ft 409 kts
2026-05-04 21:08 49.62752 9.00983 22964 ft 409 kts
2026-05-04 21:08 49.65592 9.01376 22970 ft 410 kts
2026-05-04 21:08 49.68450 9.01778 22969 ft 409 kts
2026-05-04 21:09 49.71339 9.02189 22968 ft 409 kts
2026-05-04 21:09 49.74186 9.02595 22969 ft 410 kts
2026-05-04 21:09 49.77020 9.03003 22968 ft 409 kts
2026-05-04 21:09 49.79863 9.03413 22968 ft 409 kts
2026-05-04 21:10 49.82786 9.03837 22963 ft 408 kts
2026-05-04 21:10 49.85846 9.04281 22967 ft 408 kts
2026-05-04 21:10 49.88716 9.04663 22966 ft 406 kts
2026-05-04 21:10 49.91570 9.04708 22966 ft 404 kts 354°
2026-05-04 21:11 49.94376 9.04019 22966 ft 401 kts 343°
2026-05-04 21:11 49.97154 9.02695 22969 ft 401 kts 338°
2026-05-04 21:11 49.99907 9.01108 22967 ft 400 kts 336°
2026-05-04 21:11 50.02512 8.99508 22967 ft 400 kts 335°
2026-05-04 21:12 50.05083 8.97905 22967 ft 399 kts 335°
2026-05-04 21:12 50.07698 8.96282 22967 ft 400 kts 336°
2026-05-04 21:12 50.10282 8.94697 22967 ft 400 kts 336°
2026-05-04 21:12 50.12888 8.93169 22966 ft 401 kts 338°
2026-05-04 21:13 50.15557 8.91964 22967 ft 403 kts 345°
2026-05-04 21:13 50.18304 8.91140 22967 ft 405 kts 348°
2026-05-04 21:13 50.21108 8.90514 22967 ft 406 kts 351°
2026-05-04 21:13 50.23899 8.89975 22967 ft 405 kts 351°
2026-05-04 21:14 50.26694 8.89454 22968 ft 405 kts 351°
2026-05-04 21:14 50.29463 8.88935 22966 ft 404 kts 351°
2026-05-04 21:14 50.32214 8.88216 22962 ft 401 kts 341°
2026-05-04 21:14 50.34721 8.86423 22969 ft 395 kts 322°
2026-05-04 21:15 50.36808 8.83635 22974 ft 391 kts 311°
2026-05-04 21:15 50.38633 8.80539 22967 ft 389 kts 307°
2026-05-04 21:15 50.40395 8.77330 22966 ft 389 kts 307°
2026-05-04 21:15 50.42156 8.74123 22962 ft 389 kts 307°
2026-05-04 21:16 50.43954 8.70935 22963 ft 388 kts 308°
2026-05-04 21:16 50.45764 8.67815 22960 ft 390 kts 309°
2026-05-04 21:16 50.47607 8.64710 22958 ft 390 kts 310°
2026-05-04 21:16 50.49477 8.61610 22956 ft 390 kts 310°
2026-05-04 21:17 50.51343 8.58540 22957 ft 391 kts 310°
2026-05-04 21:17 50.53223 8.55460 22961 ft 391 kts 310°
2026-05-04 21:17 50.55110 8.52374 22960 ft 391 kts 310°
2026-05-04 21:17 50.56972 8.49323 22961 ft 391 kts 310°
2026-05-04 21:18 50.58856 8.46236 22958 ft 392 kts 310°
2026-05-04 21:18 50.60755 8.43121 22962 ft 390 kts 310°
2026-05-04 21:18 50.62619 8.40058 22962 ft 391 kts 310°
2026-05-04 21:18 50.64498 8.36969 22958 ft 383 kts 310°
2026-05-04 21:19 50.66302 8.34007 22766 ft 373 kts 309°
2026-05-04 21:19 50.68095 8.31057 22417 ft 368 kts 309°
2026-05-04 21:19 50.69827 8.28194 21990 ft 365 kts 309°
2026-05-04 21:19 50.71575 8.25295 21539 ft 362 kts 309°
2026-05-04 21:20 50.73301 8.22426 21094 ft 360 kts 309°
2026-05-04 21:20 50.75001 8.19600 20649 ft 357 kts 309°
2026-05-04 21:20 50.76709 8.16768 20206 ft 355 kts 309°
2026-05-04 21:20 50.78406 8.13959 19761 ft 353 kts 310°
2026-05-04 21:21 50.80098 8.11157 19312 ft 351 kts 309°
2026-05-04 21:21 50.81765 8.08389 18873 ft 349 kts 309°
2026-05-04 21:21 50.83413 8.05647 18525 ft 344 kts 310°
2026-05-04 21:21 50.85054 8.02910 18104 ft 341 kts 310°
2026-05-04 21:22 50.86687 8.00177 17667 ft 340 kts 310°
2026-05-04 21:22 50.88304 7.97467 17227 ft 338 kts 309°
2026-05-04 21:22 50.89885 7.94789 16793 ft 336 kts 309°
2026-05-04 21:22 50.91494 7.92078 16353 ft 334 kts 310°
2026-05-04 21:23 50.93084 7.89417 15922 ft 332 kts 310°
2026-05-04 21:23 50.94655 7.86791 15492 ft 330 kts 310°
2026-05-04 21:23 50.96226 7.84166 15075 ft 329 kts 310°
2026-05-04 21:23 50.97797 7.81526 14648 ft 327 kts 310°
2026-05-04 21:24 50.99332 7.78928 14218 ft 326 kts 310°
2026-05-04 21:24 51.00880 7.76307 13793 ft 324 kts 310°
2026-05-04 21:24 51.02421 7.73710 13385 ft 321 kts 310°
2026-05-04 21:24 51.03944 7.71128 12969 ft 320 kts 310°
2026-05-04 21:25 51.05458 7.68551 12539 ft 319 kts 310°
2026-05-04 21:25 51.06954 7.66016 12136 ft 317 kts 310°
2026-05-04 21:25 51.08463 7.63463 11723 ft 316 kts 310°
2026-05-04 21:25 51.09971 7.60914 11310 ft 314 kts 310°
2026-05-04 21:26 51.11453 7.58396 10897 ft 312 kts 309°
2026-05-04 21:26 51.12934 7.55869 10487 ft 311 kts 310°
2026-05-04 21:26 51.14390 7.53385 10175 ft 305 kts 310°
2026-05-04 21:26 51.15807 7.50973 10005 ft 292 kts 310°
2026-05-04 21:27 51.17158 7.48684 9831 ft 279 kts 310°
2026-05-04 21:27 51.18498 7.46407 9428 ft 284 kts 310°
2026-05-04 21:27 51.19838 7.44131 9064 ft 282 kts 310°
2026-05-04 21:27 51.21174 7.41825 8718 ft 280 kts 309°
2026-05-04 21:28 51.22476 7.39576 8377 ft 278 kts 310°
2026-05-04 21:28 51.23782 7.37330 8029 ft 277 kts 310°
2026-05-04 21:28 51.25104 7.35072 7684 ft 276 kts 310°
2026-05-04 21:28 51.26400 7.32867 7352 ft 274 kts 310°
2026-05-04 21:29 51.27702 7.30630 7005 ft 273 kts 309°
2026-05-04 21:29 51.28981 7.28419 6671 ft 272 kts 310°
2026-05-04 21:29 51.30256 7.26209 6331 ft 271 kts 310°
2026-05-04 21:29 51.31548 7.24007 5994 ft 270 kts 311°
2026-05-04 21:30 51.32825 7.21818 5661 ft 269 kts 310°
2026-05-04 21:30 51.34089 7.19636 5331 ft 267 kts 310°
2026-05-04 21:30 51.35331 7.17485 5065 ft 263 kts 310°
2026-05-04 21:30 51.36566 7.15329 4765 ft 262 kts 310°
2026-05-04 21:31 51.39159 7.10923 3546 ft 280 kts 311°
2026-05-04 21:31 51.40421 7.08569 3050 ft 281 kts 304°
2026-05-04 21:31 51.41225 7.05821 2969 ft 263 kts 277°
2026-05-04 21:32 51.41092 7.03031 2997 ft 242 kts 252°
2026-05-04 21:32 51.40515 7.00604 2976 ft 227 kts 241°
2026-05-04 21:32 51.39685 6.98546 2983 ft 212 kts 231°
2026-05-04 21:32 51.38792 6.96763 2986 ft 199 kts 230°
2026-05-04 21:33 51.37943 6.95025 2897 ft 203 kts 232°
2026-05-04 21:33 51.37078 6.93187 2574 ft 208 kts 230°
2026-05-04 21:33 51.36096 6.91484 2268 ft 209 kts 223°
2026-05-04 21:33 51.35046 6.89835 1958 ft 211 kts 223°
2026-05-04 21:34 51.34077 6.88160 1867 ft 198 kts 232°
2026-05-04 21:34 51.33317 6.86468 1791 ft 184 kts 232°
2026-05-04 21:34 51.32553 6.84853 1484 ft 182 kts 231°
2026-05-04 21:34 51.31773 6.83212 977 ft 183 kts 232°
2026-05-04 21:35 51.31051 6.81719 659 ft 164 kts 229°
2026-05-04 21:35 51.30406 6.80332 434 ft 145 kts 233°
2026-05-04 21:35 51.29817 6.79099 264 ft 139 kts 232°
2026-05-04 21:35 51.29214 6.77843 127 ft 144 kts 232°
2026-05-04 21:36 51.28704 6.76767 124 ft 90 kts 233°
2026-05-04 21:36 51.28450 6.76230 120 ft 35 kts 233°
2026-05-04 21:36 51.28341 6.76059 120 ft 7 kts 192°
2026-05-04 21:36 51.28317 6.76043 120 ft 13 kts 207°
2026-05-04 21:37 51.28216 6.75966 117 ft 16 kts 205°
2026-05-04 21:37 51.28162 6.75927 116 ft 0 kts 204°
2026-05-04 21:38 51.28148 6.75917 116 ft 10 kts 204°
2026-05-04 21:38 51.28094 6.75877 116 ft 0 kts 205°
2026-05-04 21:38 51.28076 6.75864 116 ft 0 kts 205°
2026-05-04 21:38 51.28059 6.75851 116 ft 8 kts 205°
2026-05-04 21:39 51.27967 6.75821 117 ft 0 kts 182°
2026-05-04 21:39 51.27959 6.75821 117 ft 6 kts 182°
2026-05-04 21:39 51.27870 6.75826 119 ft 11 kts 154°
2026-05-04 21:39 51.27844 6.75920 119 ft 7 kts 92°
2026-05-04 21:40 51.27844 6.75973 120 ft 2 kts 91°
2026-05-04 21:40 51.27861 6.76028 120 ft 10 kts 33°
2026-05-04 21:40 51.27930 6.76066 119 ft 12 kts 45°
2026-05-04 21:40 51.27943 6.76167 121 ft 0 kts 89°
2026-05-04 21:41 51.27943 6.76171 121 ft 2 kts 90°
2026-05-04 21:41 51.27943 6.76180 121 ft 0 kts 92°